Tracking 19563 objects as of 20-Mar-2019
HD Live streaming from Space Station
objects crossing your sky now

COSMOS 2115

Track COSMOS 2115 now!
10-day predictions
COSMOS 2115 is classified as:


NORAD ID: 21029
Int'l Code: 1990-114B
Perigee: 1,412.4 km
Apogee: 1,419.2 km
Inclination: 82.6 °
Period: 114.0 minutes
Semi major axis: 7786 km
RCS: 1.161 m2 (large)
Launch date: December 22, 1990
Source: Commonwealth of Independent States (former USSR) (CIS)
Launch site: PLESETSK MISSILE AND SPACE COMPLEX (PKMTR)
aabbcc
Your satellite tracking list
Your tracking list is empty




NASA's NSSDC Master Catalog

Two Line Element Set (TLE):
1 21029U 90114B   19078.57396795 +.00000031 +00000-0 +11227-3 0  9995
2 21029 082.5640 106.5123 0004413 089.0221 067.7396 12.63466265302175
Source of the keplerian elements: AFSPC